User: anonymous   Login
Location: Unspecified
(0.0000°N, 0.0000°E)
Time: 04:01:56
(UTC+00:00)
Language:

Okean 3 - Orbit

View from above orbital plane
View from above orbital plane
View from above satellite
View from above satellite

Ground track
Ground track

The orbit data is extracted from the following two-line orbital elements,

1 21397U 91039A   19142.20530948  .00000134  00000-0  10428-4 0  9999
2 21397  82.5223 189.5022 0019011  46.2340 314.0449 14.92802459514801
Epoch (UTC): 22 May 2019 04:55:38
Eccentricity: 0.0019011
inclination: 82.5223°
perigee height: 576 km
apogee height: 602 km
right ascension of ascending node: 189.5022°
argument of perigee: 46.2340°
revolutions per day: 14.92802459
mean anomaly at epoch: 314.0449°
orbit number at epoch: 51480

The dashed part of the orbit path shows where the satellite is in the earth's shadow,  

DLR